Location: Newark
(48.3453°N, 0.5589°E)
Time: 15:55:34
(UTC+00:00)

A-11 Canister half - Pass Details

Date: 09 December 2019
Orbit: 1516 x 1683 km, 47.2° (Epoch: 18 January)

Event Time Altitude Azimuth Distance (km) Brightness Sun altitude
Rises 14:30:57 0° 260° (W) 4,792 12.4 10.2°
Reaches altitude 10° 14:34:00 10° 259° (W) 3,829 12.0 9.9°
Maximum altitude 14:43:51 84° 174° (S) 1,663 9.5 8.9°
Drops below altitude 10° 14:54:00 10° 88° (E) 3,939 10.8 7.8°
Sets 14:57:11 0° 88° (E) 4,935 11.2 7.4°
